Tracking 22779 objects as of 14-Apr-2021
HD Live streaming from Space Station
objects crossing your sky now

USA 24

Track USA 24 now!
10-day predictions
USA 24 is classified as:


NORAD ID: 18010
Int'l Code: 1987-043F
Perigee: 386.8 km
Apogee: 1,796.6 km
Inclination: 63.3 °
Period: 106.9 minutes
Semi major axis: 7462 km
RCS: Unknown
Launch date: May 15, 1987
Source: United States (US)
Launch site: AIR FORCE WESTERN TEST RANGE (AFWTR)
aabbcc
Your satellite tracking list
Your tracking list is empty




NASA's NSSDC Master Catalog

Two Line Element Set (TLE):
1 18010U 87043F   21104.11544968  .00001594  00000-0  13843-3 0  9999
2 18010  63.3021  61.3402 0944593  68.9804 300.9572 13.46659338 87865
Source of the keplerian elements: McCants